NOAA NWS Hourly Roundups by Site

Regional Weather Roundup for Phoenix, AZ

To Select Another Site Choose from List

Select Site:  

000
ASUS45 KPSR 232210
RWRAZ

ARIZONA HOURLY REGIONAL WEATHER ROUNDUP
NATIONAL WEATHER SERVICE PHOENIX AZ
300 PM MST MON APR 23 2018

NOTE: FAIR INDICATES FEW OR NO CLOUDS BELOW 12,000 FEET WITH NO
SIGNIFICANT WEATHER AND/OR OBSTRUCTIONS TO VISIBILITY.

AZZ001>003-036-232300-
NORTHWEST ARIZONA

CITY           SKY/WX    TMP DP  RH WIND       PRES   REMARKS
BULLHEAD CITY  SUNNY     97  21   6 S10       29.83F
KINGMAN        SUNNY     87  23   9 SW16      30.01F
$$

AZZ004>008-015-016-018-232300-
NORTH CENTRAL ARIZONA

CITY           SKY/WX    TMP DP  RH WIND       PRES   REMARKS
GRAND CANYON   SUNNY     75   9   8 SW15      30.16F
WILLIAMS       SUNNY     73  10   9 W10G21    30.16F
PRESCOTT       SUNNY     80  18  10 SW10G21   30.09F
FLAGSTAFF      SUNNY     70  17  13 SW20G26   30.19F
PAYSON         SUNNY     77  12   8 NW6G17    30.10F
PAGE           SUNNY     84  17   8 NW8       29.98F
$$

AZZ009>014-017-232300-
NORTHEAST ARIZONA

CITY           SKY/WX    TMP DP  RH WIND       PRES   REMARKS
WINSLOW        SUNNY     85  20   9 W6        30.03F
SAINT JOHNS    SUNNY     80  12   7 NW16      30.08F
WINDOW ROCK    SUNNY     74  11   9 VRB3      30.14F
SHOW LOW       SUNNY     75  14   9 SW12G20   30.16F
$$

AZZ540-542>544-546-548-232300-
GREATER PHOENIX AREA

CITY           SKY/WX    TMP DP  RH WIND       PRES   REMARKS
PHOENIX        PTSUNNY   94  22   7 N6        29.87F
BUCKEYE        SUNNY     91  23   8 SE7       29.89F
GLENDALE       MOSUNNY   95  19   6 CALM      29.89F
DEER VALLEY    SUNNY     92  19   7 CALM      29.89F
SCOTTSDALE     SUNNY     94  27   9 SW8       29.91F
MESA-FALCON    SUNNY     91  27   9 NW3       29.90F
MESA-GATEWAY   MOSUNNY   91  25   9 W9        29.91F
CHANDLER       MOSUNNY   93  19   7 SW8       29.89F
$$

AZZ539-553-232300-
SOUTHWEST MARICOPA COUNTY AND PINAL COUNTY

CITY           SKY/WX    TMP DP  RH WIND       PRES   REMARKS
CASA GRANDE    MOSUNNY   93  24   8 VRB6      29.91F
$$

AZZ503-504-507>509-232300-
SOUTHEAST ARIZONA

CITY           SKY/WX    TMP DP  RH WIND       PRES   REMARKS
TUCSON         SUNNY     90  19   7 E9        29.96F
RYAN FIELD     SUNNY     91  23   8 S7        29.95F
NOGALES        SUNNY     88  14   6 W6        30.02F
SIERRA VISTA   SUNNY     85  14   7 SW10G17   30.07F
DOUGLAS        SUNNY     85  16   7 SW13G18   30.03F
SAFFORD        SUNNY     90  19   7 VRB6      29.95F
$$

AZZ532-232300-
SOUTHWEST ARIZONA

CITY           SKY/WX    TMP DP  RH WIND       PRES   REMARKS
YUMA           MOSUNNY   95  34  11 W8        29.85F
$$

CAZ041-043-047-048-061-525>527-560>570-232300-
SOUTHERN CALIFORNIA

CITY           SKY/WX    TMP DP  RH WIND       PRES   REMARKS
DOWNTOWN L.A.  SUNNY     73  55  53 W7        29.96
L.A. AIRPORT   MOSUNNY   64  54  69 W15       29.98F
SAN DIEGO      PTSUNNY   69  55  60 NW10      29.99F
BURBANK        SUNNY     81  50  33 S9        29.95F
ONTARIO        MOSUNNY   86  47  25 W17G23    29.95F
RIVERSIDE      PTSUNNY   86  39  19 W12G24    29.94F
PALM SPRINGS   SUNNY     96  26   8 SE8       29.87F
EL CENTRO NAS  MOSUNNY   95  32  11 E6        29.84F
IMPERIAL       SUNNY     96  33  11 E9        29.83F
BLYTHE         SUNNY     96  26   8 MISG      29.85F
NEEDLES        SUNNY    101  20   5 S9        29.85F
$$

NVZ020-UTZ003-232300-
SOUTHERN NEVADA-UTAH

CITY           SKY/WX    TMP DP  RH WIND       PRES   REMARKS
LAS VEGAS      MOSUNNY   92  20   7 VRB7G18   29.89F
SALT LAKE CITY PTSUNNY   65  24  21 NW14G25   30.15S
$$

NMZ009-TXZ055-232300-
NEW MEXICO-WEST TEXAS

CITY           SKY/WX    TMP DP  RH WIND       PRES   REMARKS
ALBUQUERQUE    PTSUNNY   78  23  13 SE8       30.05F
EL PASO        MOSUNNY   88  26  10 N7        30.01F
$$


........................KEY........................
SKY/WX - SKY CONDITION/WEATHER
TMP    - TEMPERATURE IN FAHRENHEIT
DP     - DEW POINT IN FAHRENHEIT
RH     - RELATIVE HUMIDITY IN PERCENT
WIND   - DIRECTION AND SPEED IN MILES PER HOUR (MPH)
VRB    - VARIABLE WIND DIRECTION
PRES   - MEAN SEA LEVEL PRESSURE IN INCHES OF MERCURY
         F - FALLING PRESSURE   R - RISING PRESSURE
         S - STEADY PRESSURE
VSB    - VISIBILITY IN MILES
HX     - HEAT INDEX IN FAHRENHEIT
WCI    - WIND CHILL INDEX IN FAHRENHEIT
TC     - TEMPERATURE IN CELSIUS WHICH IS ALSO KNOWN AS
         TEMPERATURE IN CENTIGRADE
AFB    - AIR FORCE BASE
         LUKE AFB IS LUKE AIR FORCE BASE
         DAVIS-MONTHAN IS DAVIS-MONTHAN AIR FORCE BASE
NAS    - NAVAL AIR STATION
         EL CENTRO NAS IS EL CENTRO NAVAL AIR STATION
N/A    - NOT AVAILABLE




 

View Past Reports for Phoenix, AZ.

Products Courtesy of NOAA-NWS
NWS Information Parsing Script by Ken True at Saratoga Weather - Script by SE Lincoln Weather.